CST,Max TemperatureF,Mean TemperatureF,Min TemperatureF,Max Dew PointF,MeanDew PointF,Min DewpointF,Max Humidity, Mean Humidity, Min Humidity, Max Sea Level PressureIn, Mean Sea Level PressureIn, Min Sea Level PressureIn, Max VisibilityMiles, Mean VisibilityMiles, Min VisibilityMiles, Max Wind SpeedMPH, Mean Wind SpeedMPH, Max Gust SpeedMPH,PrecipitationIn, CloudCover, Events, WindDirDegrees
2013-12-1,76,66,56,63,60,54,93,79,64,30.19,30.10,29.98,10,10,10,17,6,37,0.00,4,,177
2013-12-2,78,67,56,65,60,55,100,80,60,29.96,29.86,29.74,10,5,0,15,6,17,0.00,4,Fog,207
2013-12-3,82,70,58,67,63,57,100,78,55,29.76,29.71,29.64,10,9,5,17,10,21,0.00,4,,179
2013-12-4,83,74,64,70,67,63,93,79,65,29.80,29.74,29.69,10,6,1,21,12,24,0.00,7,,173
2013-12-5,81,63,44,70,60,36,93,81,69,30.00,29.85,29.78,10,6,0,25,14,30,0.00,8,Fog,103
2013-12-6,50,44,38,36,33,28,79,68,56,30.38,30.18,30.00,10,10,8,26,18,31,0.00,8,,353
2013-12-7,38,37,36,30,28,27,82,73,64,30.44,30.36,30.29,10,10,9,23,13,28,T,8,,359
2013-12-8,49,42,35,45,37,30,93,82,70,30.26,30.15,30.06,10,7,2,13,8,18,T,8,Rain,3
2013-12-9,55,49,43,51,46,39,93,90,86,30.29,30.09,30.02,10,4,2,25,13,30,0.02,8,Rain,17
2013-12-10,50,45,39,38,31,26,82,62,42,30.48,30.39,30.32,10,10,4,26,14,33,T,7,Rain,9
2013-12-11,56,52,47,40,35,30,61,56,50,30.50,30.38,30.31,10,10,10,16,9,18,T,8,,21
2013-12-12,59,54,48,39,36,34,66,55,43,30.56,30.45,30.35,10,10,10,22,10,25,0.00,7,,21
2013-12-13,71,60,48,59,47,37,78,67,55,30.30,30.06,29.88,10,10,10,16,7,20,0.00,8,,38
2013-12-14,73,59,45,52,46,38,77,54,31,30.33,30.05,29.90,10,10,7,29,13,33,T,5,Rain,350
2013-12-15,63,50,37,37,32,28,85,56,27,30.45,30.36,30.31,10,10,10,14,6,23,0.00,1,,343
2013-12-16,68,51,34,44,36,30,89,58,26,30.36,30.30,30.23,10,10,8,16,4,17,0.00,1,Fog,135
2013-12-17,73,56,38,52,44,36,100,74,47,30.34,30.28,30.23,10,6,0,14,5,17,0.00,2,Fog,73
2013-12-18,76,62,48,56,52,47,93,68,43,30.30,30.20,30.09,10,10,9,18,8,24,0.00,3,Fog,113
2013-12-19,80,71,62,64,62,56,93,76,58,30.06,29.92,29.83,10,10,7,33,18,40,0.00,4,,163
2013-12-20,81,74,67,70,67,64,93,80,67,29.84,29.77,29.64,10,8,4,36,22,41,0.00,7,,169
2013-12-21,80,69,58,69,63,51,93,70,46,29.80,29.64,29.59,10,9,5,37,15,44,0.01,7,Rain,162
2013-12-22,75,62,48,55,44,35,87,56,25,30.33,30.04,29.81,10,10,10,25,14,31,0.00,2,,15
2013-12-23,62,51,40,36,28,22,70,45,20,30.53,30.44,30.35,10,10,10,22,10,28,0.00,1,,18
2013-12-24,63,49,35,47,41,32,85,68,51,30.53,30.43,30.27,10,10,10,14,8,17,0.00,3,,67
2013-12-25,71,59,47,57,52,42,93,76,59,30.31,30.25,30.21,10,10,4,15,8,18,0.02,7,Rain,44
2013-12-26,58,55,51,55,49,43,89,75,61,30.38,30.33,30.28,10,8,4,20,13,24,0.10,8,Rain,30
2013-12-27,58,55,51,49,48,47,89,78,67,30.40,30.35,30.31,10,8,4,14,9,16,0.09,8,Rain,26
2013-12-28,64,54,44,48,41,33,89,60,31,30.29,30.17,30.06,10,10,9,10,5,15,0.00,5,,15
2013-12-29,67,55,43,53,47,40,86,67,48,30.13,30.05,30.00,10,10,10,20,4,23,T,6,Rain,83
2013-12-30,59,51,42,50,36,32,76,69,62,30.40,30.28,30.10,10,10,10,25,14,31,0.03,8,Rain,1
2013-12-31,48,46,43,42,36,31,83,71,58,30.45,30.37,30.28,10,10,9,16,7,21,0.02,8,Rain,359